Location: Newark
(44.2003°N, 3.2583°E)
Time: 07:30:31
(UTC+00:00)

Altair - Visible Passes

Search period start: 23 October 2019 00:00
Search period end: 02 November 2019 00:00
Orbit: 1501 x 1682 km, 47.2° (Epoch: 22 October)

Date Brightness Start Highest point End Pass type
(mag) Time Alt. Az. Time Alt. Az. Time Alt. Az.
23 Oct 9.5 17:27:22 10° WNW 17:35:32 30° SW 17:43:47 10° S visible
24 Oct 9.5 17:02:02 10° WNW 17:10:27 32° SW 17:18:58 10° S visible
28 Oct 10.5 17:30:36 10° WSW 17:32:52 11° WSW 17:35:09 10° SW visible
29 Oct 10.4 17:04:06 10° W 17:07:52 13° WSW 17:11:39 10° SW visible
31 Oct 9.7 05:49:56 10° S 05:56:37 23° SE 06:03:24 10° E visible
01 Nov 9.7 05:25:22 10° S 05:31:36 21° SE 05:37:56 10° E visible
